Bydgoszcz Ignacy Jan Pade, Poland

7:19 PM CEST on October 15, 2018 (GMT +0200)
Szwederowo

Weather History for EPBY - May, 2018

Change the Weather History Date:

Thursday, May 17, 2018

  Actual Average Record
Temperature  
Mean Temperature 60 °F -  
Max Temperature 66 °F - - ()
Min Temperature 55 °F - - ()
Degree Days  
Heating Degree Days 4    
Growing Degree Days 10 (Base 50)    
Moisture  
Dew Point 54 °F    
Average Humidity 80    
Maximum Humidity 94    
Minimum Humidity 60    
Precipitation  
Precipitation 0.00 in - - ()
Sea Level Pressure  
Sea Level Pressure 29.76 in    
Wind  
Wind Speed 8 mph ()    
Max Wind Speed 14 mph    
Max Gust Speed -    
Visibility 6.2 miles    
Events Rain    
T = Trace of Precipitation, MM = Missing Value Source: Averaged Metar Reports

Daily Weather History Graph

Daily Weather History Graph

Search for Another Location

Airport or City:

Astronomy

May. 17, 2018 Rise Set
Actual Time 4:46 AM CEST 8:43 PM CEST
Civil Twilight 4:02 AM CEST 9:28 PM CEST
Nautical Twilight 2:58 AM CEST 10:32 PM CEST
Astronomical Twilight 1:16 AM CEST 12:12 AM CEST
Moon 6:34 AM CEST (5/17) 11:00 PM CEST (5/17)
Length of Visible Light 17h 25m
Length of Day
15h 56m
Waxing Crescent, 5% of the Moon is Illuminated
May 17
Waxing Crescent
May 22
First Quarter
May 29
Full
Jun 6
Last Quarter
Jun 13
New

Hourly Weather History & Observations

Time (CEST) Temp. Dew Point Humidity Pressure Visibility Wind Dir Wind Speed Gust Speed Precip Events Conditions
12:00 AM 57.2 °F 51.8 °F 82% 29.77 in 6.2 mi North 9.2 mph - N/A Rain Light Rain
12:30 AM 57.2 °F 51.8 °F 82% 29.77 in 6.2 mi West 9.2 mph - N/A Rain Light Rain
1:30 AM 57.2 °F 51.8 °F 82% 29.77 in - North 6.9 mph - N/A   Clear
2:00 AM 57.2 °F 51.8 °F 82% 29.77 in 6.2 mi North 6.9 mph - N/A Rain Light Rain
2:30 AM 57.2 °F 51.8 °F 82% 29.74 in 6.2 mi North 4.6 mph - N/A Rain Light Rain
3:30 AM 55.4 °F 51.8 °F 88% 29.74 in 6.2 mi North 6.9 mph - N/A Rain Light Rain
4:00 AM 55.4 °F 51.8 °F 88% 29.74 in 6.2 mi North 6.9 mph - N/A Rain Light Rain
4:30 AM 55.4 °F 51.8 °F 88% 29.74 in 6.2 mi North 8.1 mph - N/A Rain Light Rain
5:00 AM 55.4 °F 53.6 °F 94% 29.74 in 6.2 mi North 5.8 mph - N/A Rain Light Rain
5:30 AM 55.4 °F 53.6 °F 94% 29.74 in 6.2 mi North 6.9 mph - N/A   Mostly Cloudy
6:00 AM 57.2 °F 53.6 °F 88% 29.74 in 6.2 mi North 6.9 mph - N/A   Mostly Cloudy
6:30 AM 57.2 °F 53.6 °F 88% 29.74 in 6.2 mi North 5.8 mph - N/A Rain Light Rain
8:30 AM 57.2 °F 55.4 °F 94% 29.74 in 6.2 mi NNW 5.8 mph - N/A   Mostly Cloudy
9:00 AM 59.0 °F 55.4 °F 88% 29.74 in 6.2 mi NNW 8.1 mph - N/A   Mostly Cloudy
9:30 AM 59.0 °F 55.4 °F 88% 29.74 in 6.2 mi North 9.2 mph - N/A   Scattered Clouds
11:00 AM 60.8 °F 55.4 °F 82% 29.77 in 6.2 mi North 10.4 mph - N/A   Mostly Cloudy
11:30 AM 62.6 °F 57.2 °F 82% 29.77 in 6.2 mi NNW 11.5 mph - N/A   Mostly Cloudy
12:30 PM 62.6 °F 55.4 °F 77% 29.77 in 6.2 mi North 13.8 mph - N/A   Mostly Cloudy
1:30 PM 64.4 °F 55.4 °F 73% 29.77 in 6.2 mi North 13.8 mph - N/A   Mostly Cloudy
2:00 PM 64.4 °F 57.2 °F 77% 29.77 in 6.2 mi North 12.7 mph - N/A   Mostly Cloudy
3:00 PM 64.4 °F 57.2 °F 77% 29.77 in - NNW 9.2 mph - N/A   Clear
3:30 PM 64.4 °F 57.2 °F 77% 29.74 in - North 10.4 mph - N/A   Clear
5:00 PM 62.6 °F 57.2 °F 82% 29.74 in 6.2 mi North 6.9 mph - N/A   Scattered Clouds
7:00 PM 66.2 °F 51.8 °F 60% 29.77 in - NNE 12.7 mph - N/A   Clear
7:30 PM 66.2 °F 51.8 °F 60% 29.77 in - NNE 12.7 mph - N/A   Clear
8:30 PM 64.4 °F 53.6 °F 68% 29.80 in - NNE 8.1 mph - N/A   Clear
9:00 PM 64.4 °F 53.6 °F 68% 29.80 in 6.2 mi NNW 10.4 mph - N/A   Scattered Clouds
9:30 PM 62.6 °F 53.6 °F 72% 29.80 in 6.2 mi North 5.8 mph - N/A   Partly Cloudy
10:00 PM 60.8 °F 51.8 °F 72% 29.80 in 6.2 mi NNW 5.8 mph - N/A   Partly Cloudy
10:30 PM 59.0 °F 51.8 °F 77% 29.80 in - NNW 8.1 mph - N/A   Clear
11:00 PM 60.8 °F 51.8 °F 72% 29.83 in - NNW 9.2 mph - N/A   Clear